Location: Banff
(51.1667°N, 115.5667°W)
Time: 08:16:20
(UTC+00:00)

N. Korean satellite - Pass Details

Date: 05 December 2022
Orbit: 407 x 444 km, 97.3° (Epoch: 28 January)

Event Time Altitude Azimuth Distance (km) Brightness Sun altitude
Rises 12:10:38 0° 27° (NNE) 2,516 10.5 -30.0°
Reaches altitude 10° 12:13:12 10° 47° (NE) 1,627 9.7 -29.6°
Maximum altitude 12:15:40 18° 91° (E) 1,208 9.3 -29.2°
Drops below altitude 10° 12:18:05 10° 136° (SE) 1,599 9.7 -28.9°
Sets 12:20:35 0° 157° (SSE) 2,455 10.4 -28.5°
